| time (UTC) | temp F | wind direction | speed knots | gust knots | rain 1hr in | rain 24hr in | rain mn in | humidity % | barometer mb |
| 20260506102957 | 59 | 148 | 2.6 | 7.0 | 0.00 | 0.00 | 0.00 | 68 | 1007.6 |
| 20260506101458 | 59 | 148 | 2.6 | 7.8 | 0.00 | 0.00 | 0.00 | 66 | 1007.8 |
| 20260506094459 | 59 | 122 | 2.6 | 6.1 | 0.00 | 0.00 | 0.00 | 64 | 1007.8 |
| 20260506092959 | 59 | 154 | 2.6 | 7.8 | 0.00 | 0.00 | 0.00 | 63 | 1007.8 |
| 20260506091500 | 60 | 162 | 2.6 | 6.1 | 0.00 | 0.00 | 0.00 | 62 | 1007.9 |
| 20260506090000 | 60 | 221 | 2.6 | 7.0 | 0.00 | 0.00 | 0.00 | 61 | 1008.0 |
| 20260506084459 | 61 | 135 | 3.5 | 7.8 | 0.00 | 0.00 | 0.00 | 60 | 1008.0 |
| 20260506081459 | 61 | 136 | 3.5 | 8.7 | 0.00 | 0.00 | 0.00 | 58 | 1008.1 |
| 20260506072958 | 62 | 153 | 1.7 | 8.7 | 0.00 | 0.00 | 0.00 | 55 | 1008.2 |
| 20260506061458 | 63 | 213 | 3.5 | 9.6 | 0.00 | 0.00 | 0.00 | 52 | 1008.8 |
| 20260506044500 | 62 | 180 | 3.5 | 8.7 | 0.00 | 0.00 | 0.00 | 50 | 1009.3 |
| 20260506042959 | 62 | 134 | 3.5 | 9.6 | 0.00 | 0.00 | 0.00 | 50 | 1009.3 |
| 20260506041459 | 63 | 197 | 3.5 | 7.8 | 0.00 | 0.00 | 0.00 | 50 | 1009.4 |
| 20260506040004 | 63 | 136 | 3.5 | 9.6 | 0.00 | 0.00 | 0.00 | 49 | 1009.5 |
| 20260506034459 | 63 | 154 | 2.6 | 9.6 | 0.00 | 0.00 | 0.00 | 50 | 1009.5 |
| 20260506032959 | 64 | 188 | 2.6 | 7.0 | 0.00 | 0.00 | 0.00 | 50 | 1009.4 |
| 20260506031459 | 64 | 255 | 1.7 | 4.3 | 0.00 | 0.00 | 0.00 | 50 | 1009.4 |
| 20260506030000 | 65 | 156 | 2.6 | 7.0 | 0.00 | 0.00 | 0.00 | 49 | 1009.4 |
| 20260506024500 | 65 | 221 | 1.7 | 7.8 | 0.00 | 0.00 | 0.00 | 49 | 1009.4 |
| 20260506022959 | 65 | 174 | 1.7 | 7.0 | 0.00 | 0.00 | 0.00 | 49 | 1009.5 |
| 20260506021500 | 65 | 155 | 1.7 | 5.2 | 0.00 | 0.00 | 0.00 | 48 | 1009.6 |
| 20260506020000 | 66 | 139 | 1.7 | 6.1 | 0.00 | 0.00 | 0.00 | 47 | 1009.6 |
| 20260506014459 | 67 | 218 | 1.7 | 6.1 | 0.00 | 0.00 | 0.00 | 46 | 1009.6 |
| 20260506011459 | 68 | 143 | 2.6 | 7.0 | 0.00 | 0.00 | 0.00 | 44 | 1009.2 |
| 20260506010000 | 68 | 156 | 2.6 | 6.1 | 0.00 | 0.00 | 0.00 | 44 | 1009.0 |
| 20260506004458 | 69 | 186 | 1.7 | 5.2 | 0.00 | 0.00 | 0.00 | 43 | 1008.8 |
| 20260506002959 | 70 | 257 | 2.6 | 5.2 | 0.00 | 0.00 | 0.00 | 42 | 1008.8 |
| 20260506001459 | 70 | 165 | 3.5 | 10.4 | 0.00 | 0.00 | 0.00 | 42 | 1008.5 |
| 20260506000000 | 70 | 191 | 3.5 | 9.6 | 0.00 | 0.00 | 0.00 | 42 | 1008.4 |
| 20260505234459 | 70 | 150 | 3.5 | 10.4 | 0.00 | 0.00 | 0.00 | 42 | 1008.2 |
| 20260505232959 | 70 | 215 | 2.6 | 12.2 | 0.00 | 0.00 | 0.00 | 42 | 1008.2 |
| 20260505231500 | 70 | 252 | 3.5 | 10.4 | 0.00 | 0.00 | 0.00 | 42 | 1008.0 |
| 20260505224458 | 71 | 162 | 5.2 | 12.2 | 0.00 | 0.00 | 0.00 | 42 | 1008.1 |
| 20260505222959 | 71 | 179 | 2.6 | 10.4 | 0.00 | 0.00 | 0.00 | 43 | 1008.0 |
| 20260505221500 | 71 | 225 | 2.6 | 12.2 | 0.00 | 0.00 | 0.00 | 43 | 1007.9 |
| 20260505220002 | 71 | 200 | 2.6 | 7.8 | 0.00 | 0.00 | 0.00 | 43 | 1007.8 |
| 20260505214458 | 70 | 198 | 3.5 | 11.3 | 0.00 | 0.00 | 0.00 | 43 | 1007.8 |
| 20260505212958 | 71 | 251 | 4.3 | 11.3 | 0.00 | 0.00 | 0.00 | 43 | 1007.9 |
| 20260505211458 | 72 | 167 | 4.3 | 10.4 | 0.00 | 0.00 | 0.00 | 41 | 1007.6 |
| 20260505210000 | 73 | 162 | 5.2 | 13.9 | 0.00 | 0.00 | 0.00 | 40 | 1007.5 |
| 20260505204458 | 74 | 264 | 5.2 | 14.8 | 0.00 | 0.00 | 0.00 | 39 | 1007.5 |
| 20260505200002 | 75 | 79 | 7.8 | 18.2 | 0.00 | 0.00 | 0.00 | 37 | 1007.2 |
| 20260505194459 | 78 | 156 | 6.1 | 18.2 | 0.00 | 0.00 | 0.00 | 36 | 1007.4 |
| 20260505192958 | 77 | 232 | 6.1 | 18.2 | 0.00 | 0.00 | 0.00 | 36 | 1007.4 |
| 20260505191458 | 76 | 238 | 7.0 | 17.4 | 0.00 | 0.00 | 0.00 | 35 | 1007.6 |
| 20260505190003 | 77 | 226 | 7.0 | 14.8 | 0.00 | 0.00 | 0.00 | 33 | 1008.0 |
| 20260505184459 | 77 | 338 | 5.2 | 14.8 | 0.00 | 0.00 | 0.00 | 35 | 1008.2 |
| 20260505182959 | 75 | 193 | 4.3 | 13.0 | 0.00 | 0.00 | 0.00 | 40 | 1008.3 |
| 20260505181459 | 76 | 194 | 5.2 | 13.9 | 0.00 | 0.00 | 0.00 | 39 | 1008.4 |
| 20260505174501 | 77 | 235 | 6.1 | 18.2 | 0.00 | 0.00 | 0.00 | 39 | 1008.8 |
| 20260505172958 | 76 | 238 | 5.2 | 16.5 | 0.00 | 0.00 | 0.00 | 40 | 1008.5 |
| 20260505171459 | 74 | 208 | 5.2 | 15.6 | 0.00 | 0.00 | 0.00 | 41 | 1008.7 |
| 20260505162959 | 73 | 278 | 4.3 | 8.7 | 0.00 | 0.00 | 0.00 | 45 | 1009.2 |
| 20260505161459 | 73 | 252 | 5.2 | 14.8 | 0.00 | 0.00 | 0.00 | 45 | 1009.3 |
| 20260505152957 | 72 | 266 | 3.5 | 13.0 | 0.00 | 0.00 | 0.00 | 47 | 1009.8 |
| 20260505151459 | 71 | 215 | 5.2 | 13.0 | 0.00 | 0.00 | 0.00 | 47 | 1009.9 |
| 20260505124458 | 66 | 155 | 2.6 | 7.0 | 0.00 | 0.00 | 0.00 | 57 | 1010.3 |
| 20260505122958 | 64 | 162 | 3.5 | 8.7 | 0.00 | 0.00 | 0.00 | 61 | 1010.4 |
| 20260505121457 | 61 | 126 | 2.6 | 7.0 | 0.00 | 0.00 | 0.00 | 62 | 1010.5 |
| 20260505120001 | 62 | 183 | 2.6 | 6.1 | 0.00 | 0.00 | 0.00 | 62 | 1010.2 |
| 20260505112959 | 59 | 135 | 2.6 | 5.2 | 0.00 | 0.00 | 0.00 | 68 | 1010.2 |
| 20260505111500 | 57 | 232 | 2.6 | 7.0 | 0.00 | 0.00 | 0.00 | 70 | 1010.2 |